Regional Weather Roundup
Issued by NWS

Home | Current Version | Previous Version | Text Only | Print | Product List | Glossary Off
Versions: 1 2 3 4 5 6 7 8 9 10 11 12 13 14 15 16 17 18 19 20 21 22 23 24 25 26 27 28 29 30 31 32 33 34 35 36 37 38 39 40 41 42 43 44 45 46 47 48 49 50

000
ASUS44 KMEG 012200
RWRTN
TENNESSEE HOURLY STATE WEATHER ROUNDUP
NATIONAL WEATHER SERVICE MEMPHIS TN
500 PM CDT WED JUL 01 2015

TNZ002-004-019-021-049-052-054-088>092-012300-
WEST TENNESSEE

CITY           SKY/WX    TMP DP  RH WIND       PRES   REMARKS
MEMPHIS INTL   PTSUNNY   84  74  71 S12       29.93F HX  91
NWS MEMPHIS      N/A     85 N/A N/A MISG        N/A
JACKSON        CLOUDY    83  70  64 S5        29.93F
DYERSBURG        N/A    N/A N/A N/A MISG        N/A
PARIS          SUNNY     77  68  73 S8        29.94F
LEXINGTON      SUNNY     77  70  78 SE8       29.95R
$$

TNZ008-025-027-028-033-062-065-066-012300-
NORTH MIDDLE TENNESSEE

CITY           SKY/WX    TMP DP  RH WIND       PRES   REMARKS
NASHVILLE      CLOUDY    73  70  90 S12       29.95F
CLARKSVILLE    CLOUDY    78  68  71 S12       29.93R
COOKEVILLE     SUNNY     70  70 100 S13G60    29.97S
CROSSVILLE     LGT RAIN  68  63  84 S5        30.01F
$$

TNZ061-075-076-078-094-096-097-012300-
SOUTH MIDDLE TENNESSEE

CITY           SKY/WX    TMP DP  RH WIND       PRES   REMARKS
FAYETTEVILLE   MOSUNNY   66  66 100 S6        30.04R
TULLAHOMA      MOSUNNY   66  64  94 S5        30.03R
WINCHESTER     SUNNY     66  66 100 CALM      30.04R
SHELBYVILLE    SUNNY     70  70 100 S6        30.00F
$$

TNZ017-018-042-046-047-012300-
NORTHEAST TENNESSEE

CITY           SKY/WX    TMP DP  RH WIND       PRES   REMARKS
TRI CITIES     RAIN      72  69  90 SW14      30.01R FOG
$$

TNZ012-013-036-069-073-074-012300-
CENTRAL EAST TENNESSEE

CITY           SKY/WX    TMP DP  RH WIND       PRES   REMARKS
KNOXVILLE      CLOUDY    73  68  84 S14       30.00S
OAK RIDGE      LGT RAIN  77  70  79 VRB6      30.00F
GATLINBURG     MOCLDY    73  70  88 CALM      30.01R
$$

TNZ083-085-099-012300-
SOUTHEAST TENNESSEE

CITY           SKY/WX    TMP DP  RH WIND       PRES   REMARKS
CHATTANOOGA    TSTM      71  69  93 S5        30.05R
$$

SKY/WX REPORTED AS FAIR MEANS FEW OR NO CLOUDS BELOW
12 THOUSAND FEET.




USA.gov is the U.S. government's official web portal to all federal, state and local government web resources and services.